Theta_e
330 331 332 330 333 333 335 336 337 337 341 342 342 343 340 341 344 346 346 345 344 343 341 339 336 334 331 329 328 327 324 317 322 326 324 324 324 325 325 325 325 325 324 323
330 331 329 330 333 334 337 337 338 339 342 343 340 341 338 342 345 347 346 345 344 343 343 342 338 335 332 331 329 325 327 325 320 324 324 324 324 324 324 324 325 326 325 325
330 330 329 331 335 336 337 337 338 339 341 343 339 341 339 340 341 343 346 346 345 345 345 345 344 338 335 333 329 329 332 327 322 320 324 325 325 326 325 325 326 326 326 325
331 329 329 332 333 335 336 337 337 338 338 338 341 342 340 340 340 341 341 341 341 340 339 339 339 343 339 334 331 332 334 331 326 325 325 326 324 324 323 324 325 325 326 325
332 330 330 331 333 335 339 339 339 339 338 341 338 341 338 339 338 342 342 341 340 338 339 340 339 339 341 336 332 335 336 332 328 327 326 327 327 325 324 324 326 326 326 326
330 330 330 329 334 337 338 340 338 338 336 337 338 342 338 339 339 341 341 341 339 339 338 340 339 339 339 336 333 336 336 335 332 330 328 328 327 327 325 325 324 323 323 324
330 330 329 328 333 339 339 338 338 337 336 335 338 342 339 337 339 341 341 341 340 338 338 341 341 339 337 336 335 337 339 337 334 332 330 329 328 328 328 327 324 325 323 324
330 331 329 331 334 337 335 336 338 338 336 333 337 336 337 338 340 341 341 340 340 338 339 342 341 340 339 337 336 336 340 337 335 333 332 330 328 327 327 327 325 324 324 324
330 329 330 335 334 337 340 338 338 339 340 336 332 334 337 337 339 341 341 340 340 340 339 341 340 340 340 339 339 338 337 335 336 335 334 332 329 328 327 329 329 325 327 325
331 330 329 332 335 337 338 338 340 339 338 335 332 335 337 337 339 341 342 340 339 339 338 340 341 341 340 340 339 339 338 336 336 336 335 333 331 329 329 329 329 328 328 328
331 332 331 332 333 334 338 339 340 340 339 336 336 335 338 338 342 343 341 339 337 334 336 340 340 340 340 339 339 340 339 338 337 337 336 333 332 330 330 329 329 329 329 328
331 335 331 330 334 335 337 338 339 339 335 338 340 340 339 341 341 342 340 339 335 333 336 338 340 339 339 340 339 340 338 338 338 336 335 334 333 331 331 331 330 330 329 329
333 338 337 339 339 338 338 339 340 343 344 338 339 336 338 341 341 342 340 338 334 334 335 336 339 339 339 340 340 339 339 338 338 338 335 333 332 331 330 330 331 330 329 328
338 341 336 332 333 333 334 335 338 340 337 338 335 337 337 340 343 342 340 336 333 334 335 337 339 338 340 340 339 339 339 338 338 337 332 330 328 327 328 328 329 329 328 328
343 335 335 333 333 333 333 333 333 335 335 338 337 338 340 343 343 341 339 336 333 335 336 337 338 339 340 340 339 339 339 338 337 333 331 328 328 328 328 329 329 329 328 329
342 338 338 335 334 335 335 333 334 335 336 338 338 340 342 343 341 341 338 335 333 334 336 337 338 338 339 339 337 337 336 336 333 331 328 327 328 328 329 328 329 331 329 327
343 343 341 337 335 335 336 333 333 336 339 343 342 341 342 342 342 341 338 335 335 335 335 336 338 339 339 338 337 336 334 332 332 329 328 328 327 327 330 331 329 325 324 324
343 344 340 339 339 340 338 340 340 341 341 341 341 340 340 340 340 338 336 336 336 336 337 336 337 339 339 337 335 332 331 331 331 329 329 330 330 330 328 325 322 323 323 322
343 343 337 339 337 334 333 341 344 344 342 339 340 339 339 339 340 341 337 337 338 338 338 336 336 337 336 334 333 332 331 330 330 331 330 328 326 325 321 320 321 322 321 320
342 343 341 339 335 335 344 342 339 339 343 342 342 342 343 341 340 343 341 338 337 338 338 337 336 336 335 334 333 333 331 331 329 328 325 323 320 318 319 320 320 320 319 318
338 340 337 337 337 337 339 339 339 345 350 345 344 344 345 344 342 344 339 338 336 337 338 337 336 335 335 334 334 333 331 330 327 323 319 317 318 318 319 319 319 319 317 317
338 340 340 342 340 338 339 342 342 349 345 345 344 343 344 342 342 340 338 338 339 338 338 336 335 336 335 334 333 332 331 326 322 317 316 317 317 315 316 318 318 317 317 315
343 343 344 341 341 345 342 343 341 343 344 342 343 342 342 342 341 339 339 339 340 339 338 335 334 334 333 332 331 331 327 321 316 316 316 316 315 315 317 317 317 315 314 312
341 342 342 343 337 338 339 338 340 340 341 341 340 340 340 342 339 341 339 339 339 338 335 334 333 331 330 328 328 327 321 315 316 316 316 315 315 317 316 315 314 313 312 311
341 343 339 340 337 337 337 339 340 339 338 338 337 338 339 339 341 340 337 338 339 336 335 333 331 329 326 326 324 320 315 315 316 316 315 316 316 316 316 315 314 313 312 309
337 334 338 336 341 339 337 339 338 339 339 338 339 339 337 339 340 337 337 336 337 336 334 332 329 325 322 320 318 317 316 315 316 316 315 315 314 315 314 314 314 312 310 308
Wind_Speed
0 10 10 13 9 8 8 7 8 7 6 7 9 10 10 10 5 5 9 10 10 11 13 11 10 14 16 17 16 11 10 4 5 6 5 6 5 6 7 7 7 7 6 6
9 1 7 7 6 3 4 8 10 1 6 6 10 8 7 7 7 5 4 3 5 8 10 11 13 15 19 20 21 19 19 15 11 9 9 6 5 6 6 6 7 8 7 7
6 6 5 4 2 8 7 10 9 9 4 1 14 9 8 4 3 5 5 2 2 5 7 7 12 21 23 24 24 24 19 15 12 11 7 5 5 6 6 6 6 7 7 8
6 2 5 7 4 9 8 8 4 5 9 9 7 3 11 8 3 9 10 9 7 7 8 9 10 17 24 25 24 22 15 13 11 10 7 6 6 6 5 6 5 6 6 8
4 5 8 9 8 7 6 4 5 4 4 7 11 8 9 5 10 11 9 9 9 9 10 11 11 8 20 21 23 16 14 12 12 10 7 6 6 4 4 4 4 5 6 7
13 1 5 6 2 3 3 8 5 5 4 1 7 6 9 9 9 9 8 9 9 10 11 9 10 9 10 15 20 15 13 12 12 10 8 7 5 4 5 4 5 5 4 5
13 15 3 5 8 5 7 6 5 5 6 8 4 8 8 9 7 5 5 9 10 10 10 8 7 7 8 11 16 16 12 11 12 11 9 7 6 4 4 4 4 5 4 5
10 13 12 7 7 7 2 6 5 10 9 11 6 6 6 4 5 4 3 9 10 11 11 10 9 6 7 10 14 15 11 10 11 11 10 8 6 5 4 3 4 5 5 5
6 11 7 2 3 5 5 4 4 6 7 7 6 7 6 4 4 3 5 8 10 10 10 9 9 6 6 8 11 13 8 8 10 11 11 9 7 7 5 5 6 5 5 6
4 6 4 4 4 3 6 2 5 4 6 13 12 10 8 11 7 5 5 7 8 7 8 7 6 6 5 7 12 13 8 5 7 10 11 10 8 8 8 8 9 8 8 10
7 6 5 4 7 6 4 8 2 3 5 8 9 11 8 7 6 6 6 7 8 8 9 6 5 4 4 5 10 11 9 3 3 6 9 9 9 9 10 10 10 10 10 11
6 5 9 4 4 3 5 4 3 5 8 4 6 4 5 5 5 3 5 6 7 6 5 4 5 2 3 4 8 10 11 6 2 1 6 8 9 10 10 10 10 11 11 12
8 4 6 8 6 5 4 2 1 2 3 10 7 6 2 4 2 2 4 3 4 5 7 5 3 1 2 4 7 7 9 11 9 4 4 4 5 6 7 7 8 9 10 12
1 1 4 7 7 4 3 2 1 4 7 8 8 14 13 10 4 1 0 2 4 7 6 7 5 5 5 5 6 6 6 6 7 5 3 2 1 0 2 3 5 7 9 10
2 2 1 3 1 2 4 7 4 7 5 6 13 13 12 10 7 3 2 2 2 6 7 6 6 6 7 7 6 5 4 4 4 4 3 2 2 2 4 4 5 6 6 6
1 3 2 4 3 6 8 6 5 6 7 8 9 8 9 7 4 3 0 3 2 3 5 5 7 8 7 7 5 6 5 5 5 3 3 3 3 5 4 3 5 6 6 7
2 2 5 4 1 7 9 2 6 7 6 6 10 13 11 9 6 5 2 4 3 1 3 3 7 9 9 8 7 7 8 7 4 3 1 3 3 2 4 6 6 6 7 7
2 3 4 7 5 10 6 5 4 7 9 5 7 9 8 9 7 4 8 7 5 3 1 2 7 10 11 9 10 10 8 5 3 1 3 4 4 5 6 6 6 6 5 5
2 5 5 7 9 5 7 3 4 5 10 4 6 9 11 9 9 6 5 5 4 3 1 2 5 8 11 12 11 8 6 4 2 4 5 5 6 5 5 5 5 4 3 4
2 4 6 2 7 6 8 4 2 2 6 8 8 9 10 10 10 6 7 8 6 3 4 6 8 9 9 10 9 6 4 3 3 3 4 5 5 4 5 4 3 3 2 3
4 4 7 3 5 1 5 2 1 6 5 10 9 9 9 10 9 9 9 11 11 8 6 8 11 9 8 8 8 6 3 3 3 3 3 4 4 4 3 3 2 3 1 2
3 3 3 2 4 4 3 3 5 5 7 8 10 10 12 12 12 11 11 12 8 7 8 11 10 10 8 7 7 5 4 3 2 2 3 4 2 1 2 4 3 1 2 3
3 3 4 3 4 4 1 5 5 6 8 8 10 11 10 12 13 15 14 12 10 9 9 11 10 9 8 7 5 4 3 2 1 2 3 2 1 1 2 3 1 1 1 4
5 3 4 4 4 3 6 3 2 3 6 9 9 10 9 12 12 12 9 8 4 5 11 10 9 7 8 6 6 5 5 3 3 3 2 1 2 3 2 2 1 2 4 5
4 5 5 9 12 6 4 2 4 5 7 7 8 7 8 9 11 9 5 3 2 7 8 7 8 13 12 8 6 5 5 4 4 3 2 2 3 4 3 2 2 2 1 4
6 9 7 8 7 5 6 4 8 6 5 7 8 8 8 8 10 8 5 3 5 9 13 12 11 11 6 6 6 5 5 6 6 5 5 3 4 4 4 4 5 6 5 7
Wind_Direction
313 284 23 348 341 324 322 330 343 20 32 305 13 340 356 23 26 239 252 253 254 245 244 231 219 206 181 171 155 152 149 182 180 224 247 253 276 269 265 271 270 275 294 310
230 281 9 338 340 302 291 305 28 91 34 305 347 338 35 24 27 17 339 274 269 262 259 233 208 203 194 182 168 171 184 183 179 186 220 247 274 278 276 272 270 269 273 292
296 25 314 311 60 297 75 355 352 349 326 221 322 131 67 69 24 49 74 80 308 288 291 279 232 200 199 194 181 187 199 191 175 188 203 236 265 265 266 266 279 273 267 281
286 19 301 311 38 340 2 7 330 339 334 17 340 55 67 22 36 76 62 55 40 16 5 349 315 204 202 198 198 195 191 182 183 187 198 220 264 293 314 292 292 284 274 281
246 279 336 294 19 332 33 327 343 328 344 299 26 287 56 62 41 60 55 47 36 19 11 5 343 306 185 195 205 200 186 182 182 195 198 217 239 275 289 292 289 284 283 288
272 17 285 351 336 329 142 256 249 246 269 16 26 314 72 33 16 30 42 48 38 26 32 34 32 69 152 187 197 191 180 189 191 191 204 221 233 257 292 303 309 306 297 307
223 240 211 242 243 177 243 295 308 344 351 26 64 272 35 28 26 16 33 46 45 34 41 49 66 99 142 177 192 193 196 196 197 196 206 218 227 239 266 286 318 316 318 322
229 222 202 170 262 329 25 324 349 326 348 331 146 356 30 20 49 82 75 63 48 41 52 67 76 93 139 163 185 197 199 199 202 206 213 218 220 236 252 261 307 316 326 315
228 247 119 61 303 300 131 269 23 288 215 279 351 15 154 73 92 89 80 58 48 44 49 71 87 96 119 158 183 192 188 204 210 211 212 218 226 236 249 262 269 299 302 300
219 270 175 113 193 123 290 97 243 232 321 319 340 296 36 360 359 22 72 50 47 40 47 55 79 97 122 157 175 184 187 209 226 217 216 222 234 242 249 258 266 280 281 282
247 254 141 201 213 332 186 208 250 301 285 321 319 342 55 358 359 7 40 47 38 28 38 33 64 96 131 164 173 182 190 160 168 199 215 228 242 249 257 263 269 274 278 282
186 242 242 268 65 314 291 337 286 299 327 344 282 316 49 12 9 30 43 58 46 34 49 47 58 69 115 167 178 190 196 209 184 205 228 236 250 257 265 272 273 273 279 287
174 200 203 176 169 172 257 102 15 299 270 286 312 349 78 36 340 79 23 62 86 53 43 54 78 81 135 159 181 187 208 225 234 254 239 223 246 266 276 278 273 273 285 292
187 103 322 342 20 359 254 199 306 300 284 344 312 343 339 23 11 56 13 99 57 73 58 57 82 100 102 129 152 163 188 203 210 229 204 187 214 318 302 285 285 298 301 307
286 139 217 74 68 260 306 303 251 263 302 297 337 329 0 6 345 359 17 90 176 102 85 76 104 103 112 120 139 138 153 172 175 174 193 190 217 278 298 307 313 320 336 347
46 170 238 188 217 265 290 302 237 276 286 285 316 334 12 356 315 275 36 199 243 89 86 109 116 117 125 131 132 129 132 132 150 188 202 227 285 298 316 352 3 8 20 19
294 155 242 266 246 291 262 204 287 301 282 327 316 350 336 334 334 317 301 280 3 226 127 137 128 133 145 151 137 133 129 140 172 214 267 318 329 346 13 25 29 33 38 52
273 269 282 278 280 264 68 48 338 301 302 299 301 340 336 322 330 344 13 356 325 307 166 165 136 143 145 140 132 141 140 155 175 39 21 15 12 15 29 41 44 53 58 69
324 255 262 264 265 302 234 66 357 348 313 28 339 342 339 339 312 167 32 30 347 331 228 160 152 143 143 145 151 150 135 137 113 53 28 24 25 16 33 57 64 58 74 86
126 227 252 194 282 285 59 74 11 309 254 26 346 323 335 328 305 67 0 336 302 270 210 167 150 151 156 153 146 137 137 123 87 59 46 30 29 49 63 70 58 86 92 65
217 242 261 242 279 90 78 104 220 254 35 341 344 322 307 297 311 312 317 335 303 253 217 178 165 169 165 156 147 141 142 116 89 66 54 67 76 84 77 69 112 125 58 12
269 267 186 238 263 257 76 168 291 11 323 326 314 313 300 299 303 296 306 316 310 265 210 198 167 158 156 163 156 147 131 115 92 82 87 92 91 24 87 130 135 98 347 354
227 340 348 286 9 43 346 310 320 306 302 322 317 314 310 302 305 313 311 311 316 289 191 186 169 158 156 159 156 148 143 140 120 126 119 121 118 140 157 165 186 211 4 350
180 185 264 293 141 320 323 317 293 304 309 318 318 308 299 301 314 318 320 324 303 152 163 165 159 158 159 173 142 147 154 154 166 154 151 229 210 181 200 212 214 351 5 355
20 163 272 270 268 283 140 21 359 333 313 329 328 307 299 300 306 313 327 341 166 163 158 179 179 171 167 168 142 172 164 168 178 177 213 232 199 224 200 266 319 353 26 357
193 262 246 292 9 318 312 352 333 327 338 341 331 327 311 297 300 306 312 307 202 184 177 176 182 170 184 160 165 174 186 196 186 196 219 236 227 223 245 254 220 223 260 282